DL3CSM-13 Weather Reports


time (UTC)temp
C
wind
direction
speed
KPH
gust
KPH
rain 1hr
cm
rain 24hr
cm
rain mn
cm
humidity
%
barometer
mb
20260506101511 18 73 0.0 3.2 0.00 0.00 0.03 55 1006.9
20260506100011 18 72 0.0 1.6 0.00 0.00 0.03 55 1007.0
20260506094511 18 35 0.0 0.0 0.00 0.00 0.03 56 1007.1
20260506093011 17 43 0.0 1.6 0.00 0.00 0.03 58 1007.1
20260506084511 17 11 0.0 3.2 0.00 0.00 0.03 59 1007.0
20260506083011 16 0 0.0 0.0 0.00 0.00 0.03 59 1007.2
20260506081511 16 170 0.0 4.8 0.00 0.00 0.03 59 1007.3
20260506073011 14 0 0.0 0.0 0.00 0.00 0.03 68 1007.5
20260506071511 13 245 0.0 1.6 0.00 0.00 0.03 69 1007.6
20260506061513 11 0 0.0 0.0 0.00 0.00 0.03 85 1007.7
20260506043011 8 0 0.0 0.0 0.00 0.00 0.03 88 1008.0
20260506041511 8 0 0.0 0.0 0.00 0.00 0.03 88 1008.3
20260506040011 8 0 0.0 0.0 0.00 0.00 0.03 87 1008.5
20260506034511 8 0 0.0 0.0 0.00 0.00 0.03 86 1008.3
20260506031511 8 0 0.0 0.0 0.00 0.00 0.03 86 1008.6
20260506030011 8 0 0.0 0.0 0.00 0.00 0.03 86 1008.9
20260506023011 9 0 0.0 0.0 0.00 0.00 0.03 85 1008.7
20260506021511 9 0 0.0 0.0 0.00 0.00 0.03 84 1008.6
20260506020011 9 0 0.0 0.0 0.00 0.00 0.03 84 1008.8
20260506014511 10 0 0.0 0.0 0.00 0.00 0.03 83 1008.8
20260506011511 10 202 3.2 6.4 0.00 0.00 0.03 83 1009.0
20260506010011 10 197 1.6 3.2 0.00 0.00 0.03 82 1009.0
20260506003011 11 202 1.6 1.6 0.00 0.00 0.03 82 1009.1
20260506001511 11 0 0.0 0.0 0.00 0.00 0.03 80 1009.2
20260506000011 11 222 1.6 4.8 0.00 0.00 0.03 80 1009.5
20260505234511 12 232 3.2 4.8 0.00 0.00 0.03 80 1009.5
20260505233011 12 229 3.2 6.4 0.00 0.00 0.03 80 1009.7
20260505231511 12 209 3.2 4.8 0.00 0.00 0.03 78 1009.9
20260505230011 13 203 4.8 8.0 0.00 0.00 0.03 77 1009.8
20260505224511 13 206 3.2 12.9 0.00 0.00 0.03 80 1009.8
20260505223011 13 198 6.4 11.3 0.00 0.00 0.03 80 1009.6
20260505221511 13 203 6.4 9.7 0.00 0.00 0.03 80 1009.5
20260505220011 13 220 3.2 4.8 0.00 0.03 0.03 77 1009.6
20260505214511 13 213 4.8 11.3 0.00 0.03 0.03 75 1009.5
20260505213011 14 222 4.8 8.0 0.00 0.03 0.03 74 1009.7
20260505210011 15 227 4.8 8.0 0.00 0.03 0.03 72 1009.6
20260505201511 15 218 3.2 4.8 0.00 0.03 0.03 71 1008.9
20260505194511 14 222 3.2 8.0 0.00 0.03 0.03 71 1008.2
20260505193011 15 348 0.0 3.2 0.00 0.03 0.03 71 1007.6
20260505191511 15 258 0.0 3.2 0.00 0.03 0.03 70 1007.3
20260505184511 15 342 1.6 3.2 0.00 0.03 0.03 68 1007.3
20260505181511 15 226 4.8 8.0 0.00 0.03 0.03 67 1007.4
20260505173011 17 331 1.6 3.2 0.00 0.03 0.03 62 1006.9
20260505171511 17 324 0.0 4.8 0.00 0.03 0.03 63 1006.9
20260505170011 17 350 0.0 4.8 0.03 0.03 0.03 64 1006.8
20260505164511 17 332 0.0 1.6 0.03 0.03 0.03 67 1006.9
20260505163011 16 315 0.0 3.2 0.03 0.03 0.03 73 1007.0
20260505161511 16 202 0.0 3.2 0.03 0.03 0.03 69 1007.1
20260505153011 17 220 3.2 6.4 0.00 0.00 0.00 63 1007.2
20260505151511 18 226 4.8 8.0 0.00 0.00 0.00 61 1007.0
20260505124511 25 192 1.6 3.2 0.00 0.00 0.00 34 1006.4
20260505121512 25 5 1.6 4.8 0.00 0.00 0.00 33 1006.5
20260505120011 26 14 1.6 4.8 0.00 0.00 0.00 34 1006.7
20260505114511 25 202 1.6 4.8 0.00 0.00 0.00 32 1006.6
20260505113011 25 134 1.6 3.2 0.00 0.00 0.00 39 1006.8
20260505111511 25 136 1.6 6.4 0.00 0.00 0.00 39 1007.0